GFSFLT2_925_spd_009.txt.gz
Wind_Speed
10 8 6 4 2 1 0 1 1 1 2 2 3 4 4 5 4 4 5 7 8 8 7 6 6 5 5 5 5 4 3 4
10 8 5 4 3 2 1 0 1 1 2 3 4 5 6 6 6 6 6 7 9 9 8 8 7 6 6 6 5 4 4 4
11 8 6 4 4 3 2 1 2 2 3 4 4 5 6 6 7 7 8 7 8 9 9 9 8 8 8 8 8 6 5 5
13 9 7 4 3 4 3 3 4 4 5 6 7 7 8 9 9 10 10 10 10 11 10 10 9 7 8 8 7 7 5 5
13 11 9 7 7 6 6 6 6 7 7 8 9 10 10 11 12 11 11 11 12 12 11 11 10 10 10 10 9 7 5 4
14 13 11 8 7 9 10 10 9 9 10 10 11 13 13 12 14 14 14 13 13 12 12 11 11 10 9 8 7 5 3 3
15 14 11 8 7 8 10 11 11 11 12 13 14 14 14 15 16 16 16 15 13 12 10 11 9 8 7 5 5 4 4 3
16 14 10 7 6 6 6 8 9 11 11 12 14 15 16 17 18 17 17 16 15 14 12 10 10 9 7 6 5 4 3 3
18 14 9 8 7 6 6 7 8 9 10 11 13 15 17 19 20 19 19 18 18 17 15 13 12 11 9 8 6 5 3 1
19 15 11 9 8 7 7 7 8 10 12 13 14 16 18 20 21 22 21 20 19 18 16 15 14 12 10 9 8 7 5 4
18 15 11 10 9 8 7 7 8 10 13 15 17 17 19 22 25 26 25 24 24 22 20 20 15 14 13 12 11 10 8 7
14 13 11 10 10 9 9 8 10 13 15 18 20 22 23 25 28 31 30 29 29 27 26 22 21 17 15 15 14 13 12 11
13 12 8 9 7 8 8 9 13 18 19 22 23 24 24 26 29 31 33 32 36 34 30 26 21 20 11 16 17 18 17 14
3 1 4 7 9 10 11 14 14 17 19 23 25 27 28 26 24 27 28 26 29 37 32 25 20 20 16 14 6 10 12 15
6 6 7 9 10 11 11 12 13 14 19 23 25 23 22 25 27 26 26 25 27 31 32 31 29 21 24 17 6 9 7 11
16 16 14 14 14 14 15 10 12 14 18 21 28 28 29 29 30 29 27 25 25 27 27 29 27 27 15 20 12 8 8 9
15 14 16 17 18 17 15 13 12 16 20 26 29 29 30 29 27 27 27 24 23 22 21 20 23 26 23 13 11 7 3 7
13 13 14 17 17 16 16 17 19 21 27 31 33 33 31 31 26 21 17 14 8 3 2 3 1 6 4 2 6 8 7 5
15 17 16 19 19 18 19 21 23 27 30 30 32 31 28 24 15 6 3 9 12 12 12 11 12 10 9 6 4 3 1 1
15 16 18 21 22 21 20 23 27 28 27 30 31 27 19 9 2 5 6 7 6 6 7 9 13 10 10 9 8 5 2 3

GFSFLT2_925_spd_012.txt.gz
Wind_Speed
7 6 5 3 2 1 1 1 1 2 2 2 3 3 4 4 5 5 6 6 6 6 6 6 6 6 6 6 6 6 4 4
5 4 4 3 1 1 1 1 1 2 3 3 4 6 6 5 6 6 5 6 7 7 7 7 8 8 8 7 6 6 5 6
6 4 3 2 1 2 1 3 2 3 5 5 5 3 4 5 7 7 8 9 10 10 9 9 9 10 9 8 8 6 7 7
9 8 5 2 2 2 2 2 1 2 3 4 5 5 5 7 7 10 11 11 11 11 12 11 8 6 7 9 6 7 8 8
9 7 5 3 3 2 3 3 3 4 5 5 6 7 8 8 8 9 9 11 9 11 10 9 8 8 9 9 8 8 8 7
9 8 6 5 4 3 4 4 5 5 6 7 7 8 9 9 10 11 11 11 12 11 11 10 9 8 8 8 7 7 6 6
11 9 8 6 5 4 4 5 5 5 7 8 8 8 9 10 11 12 12 12 12 12 13 12 11 9 8 8 7 6 5 5
11 11 11 8 5 4 3 3 4 5 5 7 8 8 9 10 11 12 12 12 12 12 13 13 12 11 10 9 9 8 7 7
12 12 11 8 5 4 3 3 3 4 4 6 8 9 10 12 12 13 13 13 14 13 13 13 13 13 12 12 11 10 9 9
12 13 10 7 5 4 4 4 3 4 5 7 8 10 12 14 15 15 15 16 16 16 16 16 16 15 15 14 14 12 11 11
12 11 9 6 4 4 5 5 4 5 6 8 10 12 13 15 18 19 17 18 18 18 19 19 19 18 17 17 17 16 15 14
8 7 4 2 3 4 5 5 6 6 7 8 10 12 13 14 17 20 19 20 22 22 22 22 23 23 22 20 20 19 18 18
4 4 3 1 2 4 5 5 8 9 9 10 13 13 15 16 18 19 20 21 23 24 25 26 26 26 23 24 25 23 23 23
6 5 5 4 3 4 5 8 7 10 8 13 13 16 16 16 17 19 21 22 22 23 24 26 28 27 26 24 14 22 25 24
8 9 9 9 7 6 6 7 9 9 14 15 17 18 18 18 19 20 21 22 24 24 24 26 27 28 29 22 11 15 17 22
11 10 9 9 10 8 8 8 10 11 13 15 20 20 21 22 22 21 21 22 23 23 23 24 25 29 26 29 34 31 16 12
8 8 9 8 7 9 10 10 11 13 16 19 21 21 22 23 22 21 21 19 19 18 18 20 22 24 26 25 22 26 28 15
5 7 6 8 9 8 7 10 14 17 21 24 24 27 26 24 22 19 15 12 9 7 6 6 7 7 9 9 10 7 9 11
9 10 10 10 8 8 10 13 16 19 23 25 29 29 27 25 20 13 9 4 2 2 5 6 7 8 9 8 10 9 9 8
9 10 12 11 11 13 13 15 18 22 24 28 28 27 24 18 10 7 5 4 4 4 6 4 8 9 8 8 5 4 6 5

GFSFLT2_925_spd_015.txt.gz
Wind_Speed
9 7 4 5 5 4 3 4 4 4 3 4 4 5 5 5 5 5 6 7 8 8 7 7 7 7 8 8 8 8 8 8
9 6 6 3 3 4 4 4 3 3 4 5 6 5 10 8 6 8 8 8 8 8 8 9 9 9 9 8 7 4 7 9
6 6 4 3 3 4 4 5 5 5 6 8 6 4 6 5 7 9 9 9 10 11 11 11 10 7 9 11 9 7 8 9
8 5 3 2 2 2 1 1 2 2 4 5 6 7 6 9 7 13 11 11 14 9 12 13 7 10 11 9 10 9 11 10
8 6 2 1 4 4 2 2 2 3 4 6 8 8 7 9 9 9 10 13 10 11 12 11 10 11 11 11 11 11 11 11
8 6 5 3 2 3 3 2 2 4 5 7 8 9 10 10 11 12 12 12 13 12 13 12 12 11 12 11 10 10 10 10
7 8 7 4 2 3 3 2 2 2 3 5 6 7 9 10 11 12 12 13 13 14 14 14 14 13 12 12 12 11 11 11
10 8 7 5 3 2 2 1 2 2 1 3 4 5 8 10 12 12 13 14 14 15 16 16 16 15 14 13 13 13 13 12
6 8 8 8 4 3 2 1 2 2 2 2 3 5 8 11 13 15 16 17 17 18 18 18 18 17 17 16 15 15 14 14
7 7 9 9 4 3 3 2 3 5 5 5 6 7 9 11 14 16 17 18 19 20 21 21 21 21 20 19 19 18 17 16
6 8 9 7 4 4 3 4 6 7 6 8 7 9 10 12 14 17 17 20 21 22 23 22 23 23 24 24 22 21 21 20
4 7 5 3 2 3 6 6 7 7 8 9 9 11 10 13 15 17 18 20 21 22 22 25 25 26 29 28 27 24 23 23
5 6 3 1 2 4 5 6 9 11 10 9 11 11 13 14 16 16 17 19 20 22 23 23 24 25 25 25 28 29 28 28
7 5 4 3 3 4 4 7 9 10 10 10 13 12 16 17 16 18 19 20 22 23 24 25 25 24 24 23 13 20 27 32
8 7 6 7 6 5 7 10 11 15 14 18 16 18 19 20 20 21 22 22 24 23 23 24 25 26 25 23 13 14 14 26
8 6 5 6 7 5 6 9 13 15 16 17 19 21 21 22 24 23 22 22 25 24 24 23 23 25 24 27 29 25 15 15
5 4 5 6 7 7 9 11 13 15 16 18 21 20 21 23 23 23 23 23 21 20 19 17 17 20 21 21 20 21 15 5
5 7 8 8 9 9 10 12 14 17 18 20 20 22 24 23 23 23 22 19 16 15 8 8 8 8 11 13 11 7 12 7
8 10 13 12 10 13 14 14 16 17 20 21 25 25 24 23 22 19 16 14 12 9 6 5 6 8 10 9 9 7 7 6
10 13 16 17 17 16 16 16 16 18 19 22 22 24 25 23 20 15 13 9 9 11 10 10 10 6 5 5 5 5 6 7

GFSFLT2_925_spd_021.txt.gz
Wind_Speed
19 17 15 15 13 13 13 14 14 13 12 10 12 10 9 11 11 12 11 10 11 10 12 13 12 11 9 11 14 11 9 13
15 14 13 13 14 12 13 14 14 15 14 11 9 6 6 7 8 10 10 14 12 9 13 15 13 12 12 13 14 12 11 13
16 15 12 12 12 10 12 14 11 11 11 7 8 6 4 7 7 6 9 13 9 9 15 12 12 10 13 16 14 16 14 14
21 16 9 8 7 6 8 10 10 10 10 11 8 6 3 3 6 5 11 11 8 12 12 12 11 11 14 16 15 15 16 14
21 16 12 9 8 5 8 9 10 9 10 9 6 6 7 5 5 8 9 10 11 12 10 13 12 16 18 15 15 16 18 16
22 18 17 9 9 10 15 14 13 11 11 6 6 4 2 3 2 2 4 7 10 10 8 12 15 15 15 17 20 17 15 16
26 22 18 12 8 5 4 6 9 8 7 4 4 4 1 1 1 4 6 8 11 13 15 19 19 18 17 17 19 18 20 19
28 21 17 8 9 8 4 6 6 9 7 4 1 0 2 3 5 7 10 12 15 16 19 22 21 21 22 21 21 21 24 23
26 24 9 9 9 6 6 10 7 5 5 4 5 6 5 7 9 10 13 16 18 22 24 24 24 26 24 24 23 24 26 26
29 18 14 20 15 11 7 7 6 4 4 6 5 2 1 2 7 13 15 19 23 24 24 27 27 27 27 26 24 25 27 31
16 15 21 18 13 8 7 4 4 4 5 5 6 2 4 8 10 15 17 19 20 22 22 24 28 29 30 28 30 31 31 33
25 25 19 13 9 5 4 3 5 7 8 5 5 6 8 9 12 15 17 22 25 26 28 29 29 29 31 31 32 32 31 30
22 19 15 15 12 10 9 11 8 9 10 11 10 10 12 14 15 15 16 18 21 21 23 25 30 33 32 27 25 25 25 25
19 15 15 15 13 13 11 13 13 12 16 16 15 16 14 13 15 18 19 20 20 21 23 28 27 19 16 19 5 14 18 19
17 14 12 10 10 7 8 10 11 17 19 19 19 15 16 18 20 22 24 23 24 25 26 20 13 11 13 8 4 4 17 15
12 8 6 7 7 8 7 7 9 10 13 12 13 17 23 26 26 26 26 25 24 18 9 10 12 10 12 12 12 6 4 8
8 11 7 2 6 6 5 5 8 10 11 12 17 22 24 23 24 20 19 17 14 16 14 13 12 13 15 12 14 21 11 4
6 8 13 17 9 9 9 9 10 11 12 16 20 22 19 19 19 23 21 19 16 16 15 15 13 16 20 20 12 6 7 5
8 9 10 10 10 10 10 9 9 10 12 15 18 16 15 16 21 22 16 13 14 14 13 14 18 21 23 20 16 14 12 12
5 3 5 7 9 9 10 12 11 8 10 16 14 8 11 17 19 17 12 14 14 15 18 20 18 19 19 18 20 19 16 15

GFSFLT2_925_spd_024.txt.gz
Wind_Speed
21 20 17 15 14 14 15 15 14 13 13 13 11 11 11 11 11 11 13 10 11 12 14 14 13 12 13 14 14 13 14 12
21 18 16 14 15 15 16 16 16 15 12 10 9 8 8 8 6 7 9 8 8 10 11 11 12 11 14 18 16 14 11 13
21 17 15 14 15 15 15 14 13 12 9 8 5 5 4 4 3 5 6 6 5 9 9 9 10 9 14 16 18 16 15 14
21 18 15 13 14 12 12 12 12 10 10 7 5 3 2 2 2 3 4 5 6 8 8 9 10 13 14 13 16 17 16 15
24 20 16 12 9 12 12 11 12 11 8 7 5 3 4 3 1 2 3 6 9 10 10 9 13 17 16 16 16 17 17 17
25 21 18 15 13 10 13 11 12 13 11 9 7 7 4 3 1 2 5 8 11 12 12 15 19 21 21 20 19 18 18 18
27 22 16 14 15 14 13 13 16 13 13 6 6 6 3 2 2 4 7 10 12 13 16 20 22 23 22 22 23 24 23 22
27 24 18 14 12 10 11 16 13 14 10 8 6 3 3 3 4 6 7 10 13 16 19 20 21 22 24 23 24 24 24 26
31 27 13 11 13 7 8 8 8 9 10 9 7 4 2 4 5 6 10 12 15 18 19 19 20 22 24 25 25 24 25 27
33 24 10 15 10 8 6 10 7 4 5 9 6 5 4 2 5 8 11 14 17 20 22 24 26 28 30 31 29 29 29 28
29 19 10 13 12 7 9 7 1 2 4 6 6 4 6 8 11 12 13 15 17 18 20 24 26 30 31 29 33 30 27 25
18 15 16 10 9 10 9 14 14 13 12 12 11 10 10 10 11 12 14 16 17 19 20 22 25 30 31 31 27 26 30 28
25 22 16 13 11 15 15 19 23 19 16 12 11 10 12 14 16 18 19 20 20 21 24 26 30 26 23 23 23 25 18 20
22 20 18 17 16 15 13 10 14 15 10 10 11 12 14 16 19 20 21 23 25 26 24 21 17 15 12 17 5 19 10 27
19 17 15 12 10 9 8 7 7 8 10 11 14 15 17 20 22 21 24 24 21 18 15 13 11 10 12 8 4 4 15 8
13 11 10 10 8 7 7 7 6 6 6 8 12 17 20 21 18 19 20 20 20 16 12 12 12 9 10 11 10 8 4 10
12 12 9 6 6 7 7 9 8 4 4 9 14 17 18 16 15 19 19 16 15 14 15 11 12 13 14 12 12 14 10 4
10 12 11 7 6 6 5 6 5 5 8 12 14 14 12 11 15 19 14 11 13 13 12 17 21 20 18 20 17 10 8 7
8 9 13 10 9 7 5 4 3 5 8 9 9 7 4 9 13 13 11 14 17 19 18 19 21 19 20 20 17 19 20 17
8 9 9 7 6 7 5 4 4 5 4 5 5 4 4 7 8 8 10 13 15 14 14 16 16 17 17 17 17 15 13 15

GFSFLT2_925_spd_027.txt.gz
Wind_Speed
19 17 16 15 15 15 15 14 13 13 13 12 12 10 10 10 11 10 10 10 12 13 13 14 15 15 16 17 17 15 14 12
20 17 16 16 16 15 15 15 14 13 11 9 8 7 7 6 7 6 6 7 8 8 9 10 11 13 15 15 15 16 15 14
20 18 18 17 17 17 16 14 13 11 9 6 5 4 3 2 3 3 4 4 5 6 7 8 10 12 15 15 15 16 16 15
22 21 19 19 19 17 15 14 12 9 7 5 5 4 3 2 0 1 4 6 7 9 10 10 11 15 17 17 17 18 18 17
24 20 19 18 18 17 15 13 12 10 7 5 5 5 5 3 2 3 5 8 10 10 10 11 14 17 18 18 18 18 18 19
24 23 21 19 16 15 15 15 14 12 9 7 6 3 2 1 2 5 7 9 10 10 11 14 16 18 19 19 19 19 20 21
26 24 20 17 14 15 15 14 15 12 10 8 6 6 5 3 2 5 7 9 11 13 14 16 18 20 19 19 20 20 19 20
29 25 19 18 15 12 13 14 12 13 12 9 7 7 5 3 3 4 6 10 11 13 15 16 17 19 22 23 23 23 23 23
29 26 19 16 13 9 9 11 10 9 11 8 6 4 2 1 3 5 9 11 13 15 18 20 21 21 22 24 24 25 25 26
27 22 11 10 11 7 6 7 5 5 8 5 2 4 6 4 5 9 11 13 16 19 22 24 26 27 29 30 31 28 25 23
24 15 5 3 4 10 12 10 10 11 12 11 9 9 10 10 13 14 15 18 20 22 23 24 26 29 31 31 29 27 25 19
20 11 12 10 15 17 17 19 18 15 14 12 10 11 11 13 15 17 20 22 24 25 26 27 26 22 25 18 25 24 14 17
10 11 12 15 18 16 16 20 16 15 13 10 10 10 12 14 16 18 20 22 21 21 22 21 22 23 15 23 22 5 24 13
19 18 16 14 13 14 11 11 11 9 7 6 7 8 11 14 18 19 20 23 23 23 21 19 15 18 14 15 4 17 5 31
20 18 14 11 9 8 10 9 5 4 4 6 8 10 14 17 15 13 17 22 19 16 15 16 15 15 15 6 4 3 17 8
18 16 13 10 7 5 5 5 7 6 5 5 6 11 15 14 12 13 17 15 9 9 11 12 12 14 18 12 12 16 5 8
14 14 12 10 8 4 5 7 6 5 2 4 10 12 13 12 11 14 16 9 7 9 10 11 12 12 13 16 18 16 18 7
13 11 9 7 6 6 7 8 8 4 1 8 14 15 14 12 10 12 11 8 9 10 11 11 12 12 13 14 13 8 13 12
9 8 9 7 6 6 5 4 3 3 8 12 14 15 16 14 12 11 8 8 8 10 11 12 12 12 12 14 14 15 13 12
7 9 7 7 7 7 5 2 6 9 12 14 15 16 17 14 13 9 7 8 9 11 12 14 13 13 13 13 14 12 13 14

GFSFLT2_925_spd_030.txt.gz
Wind_Speed
19 18 17 15 15 15 14 14 13 13 13 13 12 12 12 12 12 12 12 12 13 13 14 14 15 16 16 16 16 17 17 14
19 18 16 16 15 14 13 13 13 13 12 10 10 10 9 8 9 8 8 8 8 9 9 11 13 15 16 16 17 16 17 16
18 17 17 16 16 15 14 13 13 12 10 8 7 6 5 5 4 4 6 5 6 7 8 9 10 13 14 14 14 16 17 17
19 18 18 18 18 17 16 15 13 10 9 7 6 4 2 2 2 3 4 5 7 7 7 7 8 12 14 13 13 14 15 16
20 19 19 18 18 17 16 14 12 10 8 6 5 3 2 1 1 2 4 5 6 6 7 9 12 14 15 15 15 15 15 16
21 20 18 18 18 17 15 14 12 9 7 4 3 3 2 3 2 2 4 5 7 9 10 12 13 15 17 18 19 18 17 17
23 20 18 16 14 14 15 14 12 8 7 5 3 2 1 3 3 4 6 8 9 11 12 14 15 17 17 19 20 20 20 20
20 18 14 12 10 10 14 12 10 9 8 6 3 1 1 3 4 6 8 11 12 13 15 15 16 16 18 20 21 23 23 21
19 14 8 5 4 4 2 5 6 6 6 3 2 4 6 7 8 10 12 12 14 15 16 17 19 20 21 23 23 23 21 19
16 13 8 8 5 4 6 3 5 7 7 8 10 11 9 10 10 11 11 13 16 18 20 21 21 21 22 21 19 20 18 12
21 15 8 6 4 7 10 11 14 16 15 13 11 11 10 10 10 12 15 18 21 20 19 19 18 18 19 12 20 21 13 11
25 17 13 8 15 17 20 19 16 14 12 10 8 8 9 10 13 16 20 22 21 21 20 19 17 20 17 16 19 11 10 15
20 16 16 20 22 20 18 17 14 11 8 6 5 5 8 12 16 18 17 18 19 20 20 19 18 22 11 21 18 3 18 12
21 21 21 19 17 14 10 12 9 6 5 3 4 8 12 16 18 16 15 18 20 18 16 15 11 16 11 9 4 8 4 28
27 25 22 16 10 9 9 9 8 6 4 2 6 11 13 15 16 13 14 16 14 11 13 16 13 15 15 4 3 2 14 7
16 14 12 11 9 7 7 5 7 4 3 2 6 10 13 16 16 12 12 13 11 10 9 11 9 10 11 4 10 10 4 7
11 8 8 6 5 3 2 2 3 5 1 4 7 9 13 13 13 11 10 8 6 4 6 8 9 10 9 12 12 11 14 8
10 9 7 5 4 2 2 2 3 1 4 7 10 11 14 15 15 13 12 10 8 7 7 9 11 11 12 11 10 6 10 8
12 10 6 4 3 3 3 1 2 6 9 13 14 15 18 19 18 17 15 12 10 9 10 9 11 13 14 15 14 14 14 14
8 6 5 5 3 3 1 5 8 10 14 14 16 19 21 21 22 18 15 12 12 13 15 14 14 14 15 16 17 15 11 10

GFSFLT2_925_spd_033.txt.gz
Wind_Speed
19 17 16 14 14 14 14 14 15 15 15 15 16 15 13 13 13 12 10 11 11 12 12 13 14 14 14 14 15 15 15 14
17 16 16 15 15 14 14 14 15 15 13 13 12 12 11 9 10 9 8 8 8 9 8 9 10 12 14 14 14 14 14 13
17 16 16 15 15 14 14 14 15 14 12 11 10 9 8 6 6 6 6 7 8 7 7 7 8 11 12 13 13 14 15 14
18 17 16 16 15 15 14 13 13 12 9 9 7 6 5 4 4 4 4 6 6 7 6 7 9 11 12 13 14 14 13 13
19 17 16 15 14 14 13 12 10 8 6 5 5 3 2 2 3 5 5 6 7 6 8 10 11 12 13 14 15 14 13 13
18 16 14 13 12 11 10 9 8 5 4 2 3 2 4 6 5 6 6 7 7 8 9 10 11 13 15 16 16 15 14 13
17 14 11 9 7 6 8 8 6 5 4 3 1 4 6 7 7 7 7 7 7 8 9 11 12 14 15 17 17 16 17 13
14 12 8 5 5 4 8 8 10 9 5 4 4 4 6 8 9 8 8 8 8 9 12 13 13 15 16 17 16 14 13 14
12 9 7 5 3 3 3 3 6 7 6 6 5 7 8 8 7 6 7 9 11 13 15 14 11 11 12 12 11 12 12 9
14 14 15 18 15 13 12 10 1 5 8 9 10 10 7 6 6 7 9 12 15 15 14 12 11 12 14 12 12 12 9 4
21 20 19 14 13 8 10 4 6 11 13 12 11 9 8 8 10 12 14 15 15 14 11 11 10 13 14 11 14 13 4 4
24 22 14 6 12 11 9 15 14 13 11 11 9 8 9 12 14 16 16 15 14 13 11 10 7 12 13 12 15 8 2 6
20 22 11 13 13 23 19 15 13 11 10 8 7 9 11 13 16 15 14 14 14 13 11 12 12 15 11 14 7 3 7 9
19 16 12 17 22 19 13 14 10 10 8 6 7 9 12 14 15 13 12 11 11 11 11 9 8 10 10 9 4 9 2 19
16 18 21 22 17 14 15 9 10 6 5 5 6 11 14 14 14 13 11 12 9 10 7 6 8 7 8 5 4 4 18 8
20 20 19 18 14 9 6 2 3 3 3 4 8 8 10 11 12 13 12 12 10 7 5 5 6 7 7 4 7 10 5 7
21 19 16 13 8 6 3 2 4 5 3 5 9 10 10 12 13 14 14 14 12 8 5 6 5 6 7 8 8 9 10 10
17 13 10 7 4 3 3 5 5 3 4 8 10 11 13 16 16 17 18 15 9 6 7 8 9 8 9 9 9 11 12 10
12 10 7 5 4 4 5 4 3 5 7 9 12 12 14 19 20 19 14 11 10 8 8 12 13 11 10 10 9 11 12 12
9 8 6 5 4 5 3 3 5 8 12 15 16 17 19 22 22 21 18 16 14 11 12 13 14 13 12 12 11 12 11 10

GFSFLT2_925_spd_036.txt.gz
Wind_Speed
15 14 14 14 13 13 14 14 14 15 16 16 15 14 14 13 11 10 10 10 10 9 10 10 12 13 14 15 15 16 13 13
15 14 14 12 11 13 13 13 13 14 14 13 12 11 10 9 9 8 7 6 6 6 6 7 8 10 11 12 13 14 13 13
14 14 12 12 11 11 11 12 12 12 11 11 8 6 6 5 6 5 4 4 5 5 5 5 7 10 11 12 13 12 12 13
13 12 12 11 9 10 9 9 8 7 7 5 5 4 3 3 3 2 3 3 4 3 4 7 7 7 10 12 12 13 12 13
12 11 11 10 9 9 8 8 7 5 4 3 3 3 3 2 2 1 2 3 2 4 5 6 8 8 9 11 12 13 14 15
12 10 10 9 9 7 7 6 5 3 2 2 3 3 3 4 3 1 2 3 3 5 6 6 8 9 10 12 13 14 15 15
12 11 10 9 8 5 4 3 2 1 1 1 1 3 4 4 3 2 3 3 4 6 7 9 11 13 14 14 15 15 14 14
11 10 10 9 8 6 4 2 0 1 5 6 5 4 5 5 4 4 3 4 6 8 10 12 13 14 14 14 14 14 14 13
12 10 10 11 11 10 7 3 3 6 6 3 5 5 6 6 5 4 5 6 9 10 11 11 12 12 14 15 14 14 14 12
14 12 15 18 14 11 10 11 10 5 2 6 7 8 8 8 6 6 6 8 9 10 11 12 12 13 15 17 16 16 15 12
18 18 15 12 13 7 6 11 4 5 8 7 8 9 9 8 6 6 7 8 9 11 12 11 14 14 17 18 17 18 16 11
21 20 15 14 17 6 7 8 11 10 8 7 7 7 7 6 6 7 8 8 9 10 10 12 13 14 18 17 18 16 12 9
22 23 19 4 12 13 10 11 10 8 7 7 6 6 5 7 6 6 7 7 7 9 11 14 15 14 19 19 18 10 11 12
19 18 17 14 12 13 11 9 6 7 7 6 5 4 5 5 5 6 6 9 10 11 12 14 16 14 15 19 8 14 14 10
17 17 16 16 16 11 10 9 8 7 6 5 2 2 1 3 5 6 8 10 13 13 13 13 15 16 11 12 10 9 17 18
20 19 18 16 12 11 11 5 6 5 6 5 2 2 3 6 8 8 10 12 14 14 13 11 12 16 15 14 13 16 10 11
16 16 14 13 13 9 6 4 5 6 5 3 4 6 7 8 10 12 14 16 16 14 12 13 12 14 16 16 15 15 16 13
14 15 13 11 9 8 7 6 5 4 2 5 8 10 11 12 13 14 16 17 17 17 15 13 15 16 15 14 14 15 16 15
13 12 11 10 9 8 7 5 3 1 3 7 10 13 15 16 16 17 18 19 20 19 17 16 17 17 16 15 13 15 16 16
12 11 10 9 9 8 5 3 0 3 5 8 11 12 13 14 15 18 20 20 19 19 17 17 16 17 17 15 15 14 16 16